Flag for Austria Weather past 2 weeks in Villach, Carinthia, Austria

Now
61 °F

Clear.


Feels Like: 61 °F
Forecast: 55 / 74 °F
Wind: 2 mph from North

Location: Klagenfurt-Flughafen

Current Time: Sep 2, 2015 at 7:13:28 AM

Latest Report: Sep 2, 2015 at 6:20 AM


Visibility: 10 mi

Pressure: 29.95 "Hg (28.22 "Hg at 504m altitude)

Humidity: 83%

Dew point: 55 °F

Location of VillachLocation

Historic Weather in Villach — Graph

°F

Villach temperature yesterday

Maximum temperature yesterday: 90 °F (at 3:20 PM)
Minimum temperature yesterday: 59 °F (at 6:50 AM)
Average temperature yesterday: 73 °F

Past Weeks' High & Low Weather Summary

 TemperatureHumidityPressure
High90 °F (Aug 30, 3:50 PM)100% (Aug 19, 12:50 AM)30.30 "Hg (Aug 19, 12:50 AM)
Low50 °F (Aug 23, 5:50 AM)22% (Sep 1, 4:50 PM)29.83 "Hg (Sep 1, 4:50 PM)
Average67 °F74%30.09 "Hg
* Reported Aug 18 5:50 AM — Sep 2 5:20 AM, Villach, Weather by CustomWeather, © 2015

Note: Actual official high and low records may vary slightly from our data, if they occured in-between our weather recording intervals... More about our weather records

Advertising

Villach weather history for previous 24 hours

 ConditionsComfort  
Time TempWeatherWind HumidityBarometerVisibility
5:20 AM
Wed, Sep 2
61 °FPassing clouds.6 mph88%29.92 "HgN/A
4:50 AM63 °FMild.6 mph83%29.92 "HgN/A
4:20 AM63 °FMild.2 mph83%29.92 "HgN/A
3:50 AM64 °FPassing clouds.2 mph73%29.92 "HgN/A
3:20 AM64 °FPassing clouds.2 mph73%29.92 "HgN/A
2:50 AM66 °FPassing clouds.1 mph68%29.92 "HgN/A
2:20 AM64 °FPassing clouds.5 mph73%29.92 "HgN/A
1:50 AM64 °FMild.5 mph73%29.92 "HgN/A
1:20 AM64 °FMild.6 mph73%29.89 "HgN/A
12:50 AM64 °FMild.7 mph73%29.89 "HgN/A
11:20 PM
Tue, Sep 1
66 °FPassing clouds.5 mph73%29.86 "HgN/A
10:50 PM70 °FClear.2 mph60%29.86 "Hg10 mi
10:20 PM75 °FClear.1 mph54%29.86 "Hg10 mi
9:50 PM70 °FClear.1 mph64%29.86 "Hg10 mi
9:20 PM72 °FClear.1 mph61%29.86 "Hg10 mi
8:50 PM72 °FPassing clouds.3 mph57%29.86 "HgN/A
8:20 PM75 °FPassing clouds.6 mph50%29.86 "HgN/A
7:50 PM79 °FPassing clouds.5 mph39%29.83 "HgN/A
7:20 PM81 °FPassing clouds.6 mph34%29.83 "HgN/A
6:50 PM82 °FPassing clouds.8 mph32%29.83 "HgN/A
6:20 PM84 °FPassing clouds.10 mph29%29.83 "HgN/A
5:50 PM84 °FPassing clouds.9 mph29%29.83 "HgN/A
5:20 PM86 °FPassing clouds.8 mph24%29.83 "HgN/A
4:50 PM88 °FPassing clouds.9 mph22%29.83 "HgN/A
4:20 PM88 °FPassing clouds.7 mph24%29.86 "HgN/A
3:50 PM88 °FPassing clouds.8 mph25%29.86 "HgN/A
3:20 PM90 °FPassing clouds.8 mph24%29.86 "HgN/A
2:50 PM88 °FPassing clouds.10 mph27%29.86 "HgN/A
2:20 PM88 °FPassing clouds.6 mph29%29.89 "HgN/A
1:50 PM86 °FPassing clouds.5 mph35%29.89 "HgN/A
1:20 PM84 °FPassing clouds.3 mph40%29.89 "HgN/A
12:50 PM84 °FPassing clouds.3 mph40%29.92 "HgN/A
12:20 PM82 °FPassing clouds.3 mph48%29.92 "HgN/A
11:50 AM79 °FPassing clouds.5 mph54%29.92 "HgN/A
11:20 AM77 °FPassing clouds.3 mph57%29.95 "HgN/A
10:50 AM75 °FPassing clouds.3 mph61%29.95 "HgN/A
10:20 AM73 °FPassing clouds.3 mph65%29.95 "HgN/A
9:50 AM70 °FPassing clouds.5 mph69%29.95 "HgN/A
9:20 AM70 °FSunny.1 mph64%29.95 "Hg10 mi
8:50 AM68 °FPassing clouds.1 mph69%29.98 "HgN/A
8:20 AM64 °FPassing clouds.1 mph78%29.98 "HgN/A
7:50 AM63 °FPassing clouds.2 mph83%29.98 "HgN/A
7:20 AM61 °FPassing clouds.2 mph83%29.98 "HgN/A
Weather by CustomWeather, © 2015

See weather overviewHow to use our weather pages